TimeMST,TemperatureF,Dew PointF,Humidity,Sea Level PressureIn,VisibilityMPH,Wind Direction,Wind SpeedMPH,Gust SpeedMPH,PrecipitationIn,Events,Conditions,WindDirDegrees,DateUTC
12:52 AM,30.0,21.9,72,29.96,10.0,SSW,15.0,-,N/A,,Clear,210,2012-12-08 07:52:00
1:52 AM,34.0,24.1,67,29.95,10.0,South,15.0,-,N/A,,Clear,190,2012-12-08 08:52:00
2:52 AM,28.9,21.9,75,29.94,10.0,SSW,12.7,-,N/A,,Clear,200,2012-12-08 09:52:00
3:52 AM,28.0,21.0,75,29.94,10.0,South,8.1,-,N/A,,Clear,180,2012-12-08 10:52:00
4:52 AM,24.1,19.0,81,29.96,10.0,SSE,10.4,-,N/A,,Clear,150,2012-12-08 11:52:00
5:52 AM,25.0,19.0,78,29.97,10.0,South,9.2,-,N/A,,Clear,190,2012-12-08 12:52:00
6:52 AM,24.1,19.0,81,29.98,10.0,South,10.4,-,N/A,,Clear,180,2012-12-08 13:52:00
7:52 AM,26.1,19.9,78,29.98,10.0,South,9.2,-,N/A,,Clear,170,2012-12-08 14:52:00
8:52 AM,33.1,21.9,64,29.97,10.0,SSW,10.4,-,N/A,,Clear,200,2012-12-08 15:52:00
9:52 AM,39.9,19.9,45,29.96,10.0,SW,16.1,-,N/A,,Clear,220,2012-12-08 16:52:00
10:52 AM,45.0,17.1,33,29.97,10.0,South,15.0,-,N/A,,Clear,190,2012-12-08 17:52:00
11:52 AM,46.9,18.0,32,29.94,10.0,SSW,16.1,-,N/A,,Clear,200,2012-12-08 18:52:00
12:52 PM,51.1,16.0,25,29.90,10.0,South,11.5,-,N/A,,Clear,180,2012-12-08 19:52:00
1:52 PM,53.1,14.0,21,29.86,10.0,South,6.9,-,N/A,,Clear,180,2012-12-08 20:52:00
2:52 PM,54.0,10.9,18,29.85,10.0,Calm,Calm,-,N/A,,Clear,0,2012-12-08 21:52:00
3:52 PM,54.0,12.9,20,29.86,10.0,North,9.2,-,N/A,,Clear,360,2012-12-08 22:52:00
4:52 PM,46.0,19.9,35,29.91,10.0,North,10.4,-,N/A,,Clear,10,2012-12-08 23:52:00
5:52 PM,39.0,19.9,46,29.94,10.0,North,15.0,-,N/A,,Clear,350,2012-12-09 00:52:00
6:52 PM,35.1,21.0,57,29.99,10.0,North,17.3,24.2,N/A,,Clear,350,2012-12-09 01:52:00
7:52 PM,33.1,21.0,61,30.03,10.0,NNW,18.4,-,N/A,,Clear,340,2012-12-09 02:52:00
8:52 PM,30.0,19.9,66,30.04,10.0,NNW,16.1,-,N/A,,Clear,340,2012-12-09 03:52:00
9:52 PM,28.0,18.0,66,30.06,10.0,NNW,13.8,-,N/A,,Clear,340,2012-12-09 04:52:00
10:52 PM,28.0,17.1,63,30.05,10.0,North,15.0,-,N/A,,Clear,350,2012-12-09 05:52:00
11:52 PM,28.0,16.0,61,30.05,10.0,North,12.7,-,N/A,,Clear,350,2012-12-09 06:52:00